Location: Unspecified
(29.9680°N, 0.0000°E)
Time: 12:50:06
(UTC+00:00)

A-11 Canister half - Pass Details

Date: 25 June 2019
Orbit: 1526 x 1683 km, 47.3° (Epoch: 20 July)

Event Time Altitude Azimuth Distance (km) Brightness Sun altitude
Rises 03:39:17 0° 246° (WSW) 4,795 - -15.5°
Reaches altitude 10° 03:42:31 10° 250° (WSW) 3,789 - -14.9°
Exits shadow 03:43:56 15° 253° (WSW) 3,362 10.2 -14.7°
Maximum altitude 03:51:52 56° 327° (NNW) 1,807 9.4 -13.3°
Drops below altitude 10° 04:01:01 10° 45° (NE) 3,703 12.5 -11.8°
Sets 04:04:09 0° 49° (NE) 4,680 13.7 -11.2°
